Location: Godiavel Galaoual
(15.2485°N, 12.6604°W)
Time: 12:42:19
(UTC+00:00)

LightSail 2 - Pass Details

Date: 09 June 2020
Orbit: 692 x 720 km, 24.0° (Epoch: 14 July)

Event Time Altitude Azimuth Distance (km) Brightness Sun altitude
Exits shadow 04:37:59 53° 203° (SSW) 864 5.2 -22.4°
Drops below altitude 10° 04:43:00 10° 127° (SE) 2,185 7.9 -21.4°
Sets 04:45:30 0° 122° (ESE) 3,107 8.8 -20.9°
